Location: Knowlton
(51.2333°N, 1.2667°E)
Time: 00:34:49
(UTC+00:00)

ZACube-1 - Pass Details

Date: 30 November 2021
Orbit: 582 x 665 km, 97.6° (Epoch: 21 January)

Event Time Altitude Azimuth Distance (km) Brightness Sun altitude
Rises 04:53:07 0° 10° (N) 2,980 ? -24.5°
Reaches altitude 10° 04:55:22 10° 6° (N) 2,074 ? -24.2°
Enters shadow 04:57:20 25° 357° (N) 1,326 ? -23.9°
